Location: Newark
(44.2003°N, 3.2583°E)
Time: 17:58:03
(UTC+00:00)

Courier 1B Rocket - Pass Details

Date: 26 October 2019
Orbit: 920 x 1202 km, 28.2° (Epoch: 12 November)

Event Time Altitude Azimuth Distance (km) Brightness Sun altitude
Exits shadow 04:39:17 11° 217° (SW) 2,549 6.8 -17.8°
Maximum altitude 04:41:28 13° 196° (SSW) 2,404 6.9 -17.4°
Drops below altitude 10° 04:44:04 10° 171° (S) 2,604 7.4 -16.9°
Sets 04:48:20 0° 144° (SE) 3,567 8.5 -16.2°
